Time,TemperatureF,DewpointF,PressureIn,WindDirection,WindDirectionDegrees,WindSpeedMPH,WindSpeedGustMPH,Humidity,HourlyPrecipIn,Conditions,Clouds,dailyrainin,SoftwareType,DateUTC
2013-12-21 00:22:00,55.0,-99.9,29.78,North,-999,-999.0,-999.0,100,-99.99,,,-99.99,,2013-12-21 05:22:00,
2013-12-21 00:33:00,55.0,-99.9,29.78,North,-999,-999.0,-999.0,100,-99.99,,,-99.99,,2013-12-21 05:33:00,
2013-12-21 00:42:00,55.0,-99.9,29.78,North,-999,-999.0,-999.0,100,-99.99,,,-99.99,,2013-12-21 05:42:00,
2013-12-21 01:22:00,56.0,-99.9,29.77,North,-999,-999.0,-999.0,100,-99.99,,,-99.99,,2013-12-21 06:22:00,
2013-12-21 01:32:00,56.0,-99.9,29.77,North,-999,-999.0,-999.0,100,-99.99,,,-99.99,,2013-12-21 06:32:00,
2013-12-21 01:42:00,56.0,-99.9,29.77,North,-999,-999.0,-999.0,100,-99.99,,,-99.99,,2013-12-21 06:42:00,
2013-12-21 02:22:00,56.0,-99.9,29.74,North,-999,-999.0,-999.0,100,-99.99,,,-99.99,,2013-12-21 07:22:00,
2013-12-21 02:32:00,56.0,-99.9,29.74,North,-999,-999.0,-999.0,100,-99.99,,,-99.99,,2013-12-21 07:32:00,
2013-12-21 02:42:00,56.0,-99.9,29.74,North,-999,-999.0,-999.0,100,-99.99,,,-99.99,,2013-12-21 07:42:00,
2013-12-21 03:22:00,56.0,-99.9,29.73,North,-999,-999.0,-999.0,100,-99.99,,,-99.99,,2013-12-21 08:22:00,
2013-12-21 03:32:00,56.0,-99.9,29.73,North,-999,-999.0,-999.0,100,-99.99,,,-99.99,,2013-12-21 08:32:00,
2013-12-21 03:42:00,56.0,-99.9,29.73,North,-999,-999.0,-999.0,100,-99.99,,,-99.99,,2013-12-21 08:42:00,
2013-12-21 04:22:00,57.0,-99.9,29.75,North,-999,-999.0,-999.0,100,-99.99,,,-99.99,,2013-12-21 09:22:00,
2013-12-21 04:33:00,57.0,-99.9,29.75,North,-999,-999.0,-999.0,100,-99.99,,,-99.99,,2013-12-21 09:33:00,
2013-12-21 04:43:00,57.0,-99.9,29.75,North,-999,-999.0,-999.0,100,-99.99,,,-99.99,,2013-12-21 09:43:00,
2013-12-21 05:23:00,57.0,-99.9,29.75,North,-999,-999.0,-999.0,100,-99.99,,,-99.99,,2013-12-21 10:23:00,
2013-12-21 05:33:00,57.0,-99.9,29.75,North,-999,-999.0,-999.0,100,-99.99,,,-99.99,,2013-12-21 10:33:00,
2013-12-21 05:43:00,57.0,-99.9,29.75,North,-999,-999.0,-999.0,100,-99.99,,,-99.99,,2013-12-21 10:43:00,
2013-12-21 06:23:00,55.0,-99.9,29.75,North,-999,-999.0,-999.0,100,-99.99,,,-99.99,,2013-12-21 11:23:00,
2013-12-21 06:33:00,55.0,-99.9,29.75,North,-999,-999.0,-999.0,100,-99.99,,,-99.99,,2013-12-21 11:33:00,
2013-12-21 06:42:00,55.0,-99.9,29.75,North,-999,-999.0,-999.0,100,-99.99,,,-99.99,,2013-12-21 11:42:00,
2013-12-21 07:22:00,56.0,-99.9,29.77,North,-999,-999.0,-999.0,100,-99.99,,,-99.99,,2013-12-21 12:22:00,
2013-12-21 07:32:00,56.0,-99.9,29.77,North,-999,-999.0,-999.0,100,-99.99,,,-99.99,,2013-12-21 12:32:00,
2013-12-21 07:42:00,56.0,-99.9,29.77,North,-999,-999.0,-999.0,100,-99.99,,,-99.99,,2013-12-21 12:42:00,
2013-12-21 08:22:00,48.0,-99.9,29.79,North,-999,-999.0,-999.0,100,-99.99,,,-99.99,,2013-12-21 13:22:00,
2013-12-21 08:32:00,48.0,-99.9,29.79,North,-999,-999.0,-999.0,100,-99.99,,,-99.99,,2013-12-21 13:32:00,
2013-12-21 08:42:00,48.0,-99.9,29.79,North,-999,-999.0,-999.0,100,-99.99,,,-99.99,,2013-12-21 13:42:00,
2013-12-21 09:22:00,44.0,-99.9,29.79,North,-999,-999.0,-999.0,100,-99.99,,,-99.99,,2013-12-21 14:22:00,
2013-12-21 09:32:00,44.0,-99.9,29.79,North,-999,-999.0,-999.0,100,-99.99,,,-99.99,,2013-12-21 14:32:00,
2013-12-21 09:42:00,44.0,-99.9,29.79,North,-999,-999.0,-999.0,100,-99.99,,,-99.99,,2013-12-21 14:42:00,
2013-12-21 10:22:00,41.0,-99.9,29.81,North,-999,-999.0,-999.0,100,-99.99,,,-99.99,,2013-12-21 15:22:00,
2013-12-21 10:33:00,41.0,-99.9,29.81,North,-999,-999.0,-999.0,100,-99.99,,,-99.99,,2013-12-21 15:33:00,
2013-12-21 10:44:00,41.0,-99.9,29.81,North,-999,-999.0,-999.0,100,-99.99,,,-99.99,,2013-12-21 15:44:00,
2013-12-21 11:23:00,41.0,-99.9,29.83,North,-999,-999.0,-999.0,100,-99.99,,,-99.99,,2013-12-21 16:23:00,
2013-12-21 11:34:00,41.0,-99.9,29.83,North,-999,-999.0,-999.0,100,-99.99,,,-99.99,,2013-12-21 16:34:00,
2013-12-21 11:43:00,41.0,-99.9,29.83,North,-999,-999.0,-999.0,100,-99.99,,,-99.99,,2013-12-21 16:43:00,
2013-12-21 12:23:00,40.0,-99.9,29.82,North,-999,-999.0,-999.0,100,-99.99,,,-99.99,,2013-12-21 17:23:00,
2013-12-21 12:33:00,40.0,-99.9,29.82,North,-999,-999.0,-999.0,100,-99.99,,,-99.99,,2013-12-21 17:33:00,
2013-12-21 12:43:00,40.0,-99.9,29.82,North,-999,-999.0,-999.0,100,-99.99,,,-99.99,,2013-12-21 17:43:00,
2013-12-21 13:23:00,39.0,-99.9,29.79,North,-999,-999.0,-999.0,100,-99.99,,,-99.99,,2013-12-21 18:23:00,
2013-12-21 13:32:00,39.0,-99.9,29.79,North,-999,-999.0,-999.0,100,-99.99,,,-99.99,,2013-12-21 18:32:00,
2013-12-21 13:42:00,39.0,-99.9,29.79,North,-999,-999.0,-999.0,100,-99.99,,,-99.99,,2013-12-21 18:42:00,
2013-12-21 14:22:00,42.0,-99.9,29.74,North,-999,-999.0,-999.0,100,-99.99,,,-99.99,,2013-12-21 19:22:00,
2013-12-21 14:32:00,42.0,-99.9,29.74,North,-999,-999.0,-999.0,100,-99.99,,,-99.99,,2013-12-21 19:32:00,
2013-12-21 14:42:00,42.0,-99.9,29.74,North,-999,-999.0,-999.0,100,-99.99,,,-99.99,,2013-12-21 19:42:00,
2013-12-21 15:23:00,43.0,-99.9,29.75,North,-999,-999.0,-999.0,100,-99.99,,,-99.99,,2013-12-21 20:23:00,
2013-12-21 15:32:00,43.0,-99.9,29.75,North,-999,-999.0,-999.0,100,-99.99,,,-99.99,,2013-12-21 20:32:00,
2013-12-21 15:42:00,43.0,-99.9,29.75,North,-999,-999.0,-999.0,100,-99.99,,,-99.99,,2013-12-21 20:42:00,
2013-12-21 16:22:00,39.0,-99.9,29.77,North,-999,-999.0,-999.0,100,-99.99,,,-99.99,,2013-12-21 21:22:00,
2013-12-21 16:33:00,39.0,-99.9,29.77,North,-999,-999.0,-999.0,100,-99.99,,,-99.99,,2013-12-21 21:33:00,
2013-12-21 16:44:00,39.0,-99.9,29.77,North,-999,-999.0,-999.0,100,-99.99,,,-99.99,,2013-12-21 21:44:00,
2013-12-21 17:23:00,37.0,-99.9,29.77,North,-999,-999.0,-999.0,100,-99.99,,,-99.99,,2013-12-21 22:23:00,
2013-12-21 17:33:00,37.0,-99.9,29.77,North,-999,-999.0,-999.0,100,-99.99,,,-99.99,,2013-12-21 22:33:00,
2013-12-21 17:42:00,37.0,-99.9,29.77,North,-999,-999.0,-999.0,100,-99.99,,,-99.99,,2013-12-21 22:42:00,
2013-12-21 18:22:00,36.0,-99.9,29.76,North,-999,-999.0,-999.0,100,-99.99,,,-99.99,,2013-12-21 23:22:00,
2013-12-21 18:33:00,36.0,-99.9,29.76,North,-999,-999.0,-999.0,100,-99.99,,,-99.99,,2013-12-21 23:33:00,
2013-12-21 18:43:00,36.0,-99.9,29.76,North,-999,-999.0,-999.0,100,-99.99,,,-99.99,,2013-12-21 23:43:00,
2013-12-21 19:22:00,36.0,-99.9,29.76,North,-999,-999.0,-999.0,100,-99.99,,,-99.99,,2013-12-22 00:22:00,
2013-12-21 19:32:00,36.0,-99.9,29.76,North,-999,-999.0,-999.0,100,-99.99,,,-99.99,,2013-12-22 00:32:00,
2013-12-21 19:42:00,36.0,-99.9,29.76,North,-999,-999.0,-999.0,100,-99.99,,,-99.99,,2013-12-22 00:42:00,
2013-12-21 20:22:00,37.0,-99.9,29.75,North,-999,-999.0,-999.0,100,-99.99,,,-99.99,,2013-12-22 01:22:00,
2013-12-21 20:32:00,37.0,-99.9,29.75,North,-999,-999.0,-999.0,100,-99.99,,,-99.99,,2013-12-22 01:32:00,
2013-12-21 20:42:00,37.0,-99.9,29.75,North,-999,-999.0,-999.0,100,-99.99,,,-99.99,,2013-12-22 01:42:00,
2013-12-21 21:22:00,38.0,-99.9,29.70,North,-999,-999.0,-999.0,100,-99.99,,,-99.99,,2013-12-22 02:22:00,
2013-12-21 21:32:00,38.0,-99.9,29.70,North,-999,-999.0,-999.0,100,-99.99,,,-99.99,,2013-12-22 02:32:00,
2013-12-21 21:42:00,38.0,-99.9,29.70,North,-999,-999.0,-999.0,100,-99.99,,,-99.99,,2013-12-22 02:42:00,
2013-12-21 22:22:00,39.0,-99.9,29.70,North,-999,-999.0,-999.0,100,-99.99,,,-99.99,,2013-12-22 03:22:00,
2013-12-21 22:33:00,39.0,-99.9,29.70,North,-999,-999.0,-999.0,100,-99.99,,,-99.99,,2013-12-22 03:33:00,
2013-12-21 22:43:00,39.0,-99.9,29.70,North,-999,-999.0,-999.0,100,-99.99,,,-99.99,,2013-12-22 03:43:00,
2013-12-21 23:23:00,40.0,-99.9,29.59,North,-999,-999.0,-999.0,100,-99.99,,,-99.99,,2013-12-22 04:23:00,
2013-12-21 23:34:00,40.0,-99.9,29.59,North,-999,-999.0,-999.0,100,-99.99,,,-99.99,,2013-12-22 04:34:00,
2013-12-21 23:43:00,40.0,-99.9,29.59,North,-999,-999.0,-999.0,100,-99.99,,,-99.99,,2013-12-22 04:43:00,